Home > Weather > Portland > Past weeks

Flag for USA Past Weather in Portland, Oregon, USA — Yesterday and Last 2 Weeks

Now
59 °F

Passing clouds.


Feels Like: 57 °F
Forecast: 58 / 82 °F
Wind: 9 mph from North

Location: Portland International Airport

Current Time: Jun 29, 2016 at 2:12:35 AM

Latest Report: Jun 29, 2016 at 12:53 AM


Visibility: 10 mi

Pressure: 30.17 "Hg

Humidity: 78%

Dew Point: 52 °F

Location of PortlandLocation

Past Weather in Portland — Graph

°F

Portland Temperature Yesterday

Maximum temperature yesterday: 79 °F (at 4:53 PM)
Minimum temperature yesterday: 57 °F (at 3:53 AM)
Average temperature yesterday: 66 °F

High & Low Weather Summary for the Past Weeks

 TemperatureHumidityPressure
High88 °F (Jun 26, 4:53 PM)93% (Jun 19, 5:53 AM)30.40 "Hg (Jun 19, 5:53 AM)
Low48 °F (Jun 15, 4:53 AM)30% (Jun 19, 4:53 PM)29.90 "Hg (Jun 15, 1:53 PM)
Average63 °F62%30.12 "Hg
* Reported Jun 14 12:53 AM — Jun 29 12:53 AM, Portland, Weather by CustomWeather, © 2016

Note: Actual official high and low records may vary slightly from our data, if they occured in-between our weather recording intervals... More about our weather records

Advertising

Portland Weather History for the Previous 24 Hours

Scroll right to see more
 ConditionsComfort  
Time TempWeatherWind HumidityBarometerVisibility
12:53 AM
Wed, Jun 29
59 °FPassing clouds.9 mph78%30.17 "Hg10 mi
11:53 PM
Tue, Jun 28
60 °FClear.6 mph78%30.17 "Hg10 mi
10:53 PM61 °FClear.9 mph78%30.16 "Hg10 mi
9:53 PM65 °FSunny.7 mph70%30.15 "Hg10 mi
8:53 PM69 °FSunny.10 mph61%30.12 "Hg10 mi
7:53 PM74 °FSunny.8 mph53%30.11 "Hg10 mi
6:53 PM77 °FSunny.12 mph50%30.09 "Hg10 mi
5:53 PM79 °FSunny.9 mph39%30.09 "Hg10 mi
4:53 PM79 °FSunny.8 mph42%30.10 "Hg10 mi
3:53 PM77 °FSunny.9 mph47%30.13 "Hg10 mi
2:53 PM75 °FSunny.12 mph50%30.14 "Hg10 mi
1:53 PM73 °FSunny.8 mph51%30.16 "Hg10 mi
12:53 PM71 °FSunny.8 mph51%30.17 "Hg10 mi
11:53 AM68 °FPassing clouds.5 mph57%30.19 "Hg10 mi
10:53 AM65 °FPassing clouds.5 mph61%30.21 "Hg10 mi
9:53 AM62 °FPartly sunny.5 mph70%30.22 "Hg10 mi
8:53 AM60 °FPartly sunny.7 mph72%30.22 "Hg10 mi
7:53 AM59 °FOvercast.12 mph75%30.21 "Hg10 mi
6:53 AM58 °FPartly sunny.8 mph78%30.20 "Hg10 mi
5:53 AM57 °FPassing clouds.3 mph81%30.19 "Hg10 mi
4:53 AM57 °FPassing clouds.6 mph81%30.19 "Hg10 mi
3:53 AM57 °FPassing clouds.8 mph81%30.18 "Hg10 mi
2:53 AM58 °FClear.9 mph78%30.19 "Hg10 mi
Weather by CustomWeather, © 2016

See weather overviewHow to use our weather pages